Location: Newark
(21.1200°N, 73.4000°E)
Time: 03:19:33
(UTC+00:00)

Explorer 11/Cluster Stage 4 - Pass Details

Date: 24 January 2020
Orbit: 467 x 1259 km, 28.8° (Epoch: 16 February)

Event Time Altitude Azimuth Distance (km) Brightness Sun altitude
Rises 12:14:32 0° 287° (WNW) 4,055 11.1 7.1°
Reaches altitude 10° 12:17:43 10° 293° (WNW) 3,000 10.3 6.4°
Maximum altitude 12:24:46 46° 4° (N) 1,302 7.6 4.9°
Drops below altitude 10° 12:30:31 10° 77° (ENE) 2,463 8.5 3.7°
Sets 12:32:55 0° 84° (E) 3,273 9.1 3.1°
